| time (UTC) | temp F | wind direction | speed MPH | gust MPH | rain 1hr in | rain 24hr in | rain mn in | humidity % | barometer mb |
| 20260506230241 | 41 | 111 | 0.0 | 0.0 | 0.00 | 0.00 | 0.00 | 92 | 1012.2 |
| 20260506225740 | 41 | 101 | 0.0 | 0.0 | 0.00 | 0.00 | 0.00 | 94 | 1012.2 |
| 20260506225237 | 40 | 100 | 0.0 | 0.0 | 0.00 | 0.00 | 0.00 | 94 | 1012.2 |
| 20260506224741 | 41 | 108 | 0.0 | 0.0 | 0.00 | 0.00 | 0.00 | 92 | 1012.2 |
| 20260506224241 | 42 | 203 | 0.0 | 0.0 | 0.00 | 0.00 | 0.00 | 91 | 1012.2 |
| 20260506223740 | 42 | 205 | 0.0 | 0.0 | 0.00 | 0.00 | 0.00 | 90 | 1012.2 |
| 20260506223237 | 42 | 115 | 0.0 | 0.0 | 0.00 | 0.00 | 0.00 | 90 | 1012.2 |
| 20260506222753 | 41 | 110 | 0.0 | 0.0 | 0.00 | 0.00 | 0.00 | 92 | 1012.3 |
| 20260506222249 | 41 | 101 | 0.0 | 0.0 | 0.00 | 0.00 | 0.00 | 93 | 1012.3 |
| 20260506221747 | 41 | 103 | 0.0 | 0.0 | 0.00 | 0.00 | 0.00 | 93 | 1012.3 |
| 20260506221247 | 41 | 103 | 0.0 | 0.0 | 0.00 | 0.00 | 0.00 | 92 | 1012.3 |
| 20260506220746 | 42 | 133 | 0.0 | 0.0 | 0.00 | 0.00 | 0.00 | 92 | 1012.3 |
| 20260506220242 | 42 | 98 | 0.0 | 0.0 | 0.00 | 0.00 | 0.00 | 92 | 1012.3 |
| 20260506215738 | 42 | 94 | 0.0 | 0.0 | 0.00 | 0.00 | 0.97 | 93 | 1012.3 |
| 20260506215235 | 42 | 94 | 0.0 | 0.0 | 0.00 | 0.00 | 0.97 | 93 | 1012.3 |
| 20260506214749 | 42 | 94 | 0.0 | 0.0 | 0.00 | 0.00 | 0.97 | 93 | 1012.3 |
| 20260506214245 | 42 | 94 | 0.0 | 0.0 | 0.00 | 0.00 | 0.97 | 92 | 1012.4 |
| 20260506213740 | 42 | 94 | 0.0 | 0.0 | 0.00 | 0.00 | 0.97 | 92 | 1012.4 |
| 20260506213241 | 42 | 94 | 0.0 | 0.0 | 0.00 | 0.00 | 0.97 | 92 | 1012.4 |
| 20260506212741 | 42 | 101 | 0.0 | 0.0 | 0.00 | 0.00 | 0.96 | 93 | 1011.6 |
| 20260506212241 | 41 | 120 | 0.0 | 0.0 | 0.00 | 0.00 | 0.95 | 96 | 1011.6 |
| 20260506211741 | 41 | 229 | 0.0 | 0.0 | 0.00 | 0.00 | 0.95 | 96 | 1011.6 |
| 20260506211241 | 41 | 229 | 0.0 | 0.0 | 0.00 | 0.00 | 0.95 | 97 | 1011.5 |
| 20260506210741 | 40 | 229 | 0.0 | 0.0 | 0.00 | 0.00 | 0.95 | 97 | 1011.5 |
| 20260506210240 | 40 | 229 | 0.0 | 0.0 | 0.00 | 0.00 | 0.95 | 97 | 1011.5 |
| 20260506205737 | 40 | 229 | 0.0 | 0.0 | 0.00 | 0.00 | 0.95 | 97 | 1011.6 |
| 20260506205237 | 40 | 229 | 0.0 | 0.0 | 0.00 | 0.00 | 0.95 | 97 | 1011.6 |
| 20260506204736 | 40 | 229 | 0.0 | 0.0 | 0.00 | 0.00 | 0.95 | 97 | 1011.6 |
| 20260506204252 | 40 | 229 | 0.0 | 0.0 | 0.00 | 0.00 | 0.95 | 98 | 1011.9 |
| 20260506203748 | 40 | 229 | 0.0 | 0.0 | 0.00 | 0.00 | 0.95 | 98 | 1011.9 |
| 20260506203245 | 40 | 232 | 0.0 | 0.0 | 0.00 | 0.00 | 0.95 | 97 | 1011.9 |
| 20260506202743 | 40 | 233 | 0.0 | 0.0 | 0.00 | 0.00 | 0.95 | 98 | 1011.8 |
| 20260506202244 | 40 | 233 | 0.0 | 0.0 | 0.00 | 0.00 | 0.95 | 97 | 1011.8 |
| 20260506201744 | 40 | 231 | 0.0 | 0.0 | 0.00 | 0.00 | 0.95 | 98 | 1011.8 |
| 20260506201242 | 40 | 231 | 0.0 | 0.0 | 0.00 | 0.00 | 0.95 | 98 | 1011.4 |
| 20260506200738 | 40 | 244 | 0.0 | 0.0 | 0.00 | 0.00 | 0.95 | 97 | 1011.4 |
| 20260506200230 | 40 | 238 | 0.0 | 0.0 | 0.00 | 0.00 | 0.95 | 98 | 1011.4 |
| 20260506195750 | 40 | 108 | 0.0 | 0.0 | 0.00 | 0.00 | 0.95 | 98 | 1011.2 |
| 20260506195246 | 40 | 99 | 0.0 | 0.0 | 0.00 | 0.00 | 0.95 | 98 | 1011.2 |
| 20260506194745 | 40 | 94 | 0.0 | 0.0 | 0.00 | 0.00 | 0.95 | 98 | 1011.2 |
| 20260506194235 | 40 | 99 | 0.0 | 0.0 | 0.00 | 0.00 | 0.95 | 98 | 1011.0 |
| 20260506193734 | 40 | 94 | 0.0 | 0.0 | 0.00 | 0.00 | 0.95 | 98 | 1011.0 |
| 20260506193250 | 40 | 96 | 0.0 | 0.0 | 0.00 | 0.00 | 0.95 | 98 | 1011.0 |
| 20260506192746 | 40 | 96 | 0.0 | 0.0 | 0.00 | 0.00 | 0.95 | 98 | 1010.7 |
| 20260506192242 | 40 | 111 | 0.0 | 0.0 | 0.00 | 0.00 | 0.95 | 98 | 1010.7 |
| 20260506191741 | 40 | 107 | 0.0 | 0.0 | 0.00 | 0.00 | 0.94 | 98 | 1010.7 |
| 20260506191238 | 40 | 105 | 0.0 | 0.0 | 0.00 | 0.00 | 0.94 | 98 | 1010.5 |
| 20260506190741 | 40 | 98 | 0.0 | 0.0 | 0.00 | 0.00 | 0.94 | 98 | 1010.5 |
| 20260506190241 | 40 | 104 | 0.0 | 0.0 | 0.00 | 0.00 | 0.94 | 97 | 1010.5 |
| 20260506185741 | 40 | 97 | 0.0 | 0.0 | 0.00 | 0.00 | 0.94 | 97 | 1010.3 |
| 20260506185241 | 40 | 99 | 0.0 | 0.0 | 0.00 | 0.00 | 0.94 | 97 | 1010.3 |
| 20260506184743 | 40 | 108 | 0.0 | 0.0 | 0.00 | 0.00 | 0.94 | 97 | 1010.3 |
| 20260506184239 | 40 | 104 | 0.0 | 0.0 | 0.00 | 0.00 | 0.94 | 97 | 1010.3 |
| 20260506183735 | 40 | 99 | 0.0 | 0.0 | 0.00 | 0.00 | 0.94 | 97 | 1010.3 |
| 20260506183250 | 40 | 111 | 0.0 | 0.0 | 0.00 | 0.00 | 0.94 | 96 | 1010.3 |
| 20260506182747 | 41 | 109 | 0.0 | 0.0 | 0.00 | 0.00 | 0.94 | 96 | 1010.3 |
| 20260506182247 | 41 | 95 | 0.0 | 0.0 | 0.00 | 0.00 | 0.94 | 95 | 1010.3 |
| 20260506181746 | 41 | 102 | 0.0 | 0.0 | 0.00 | 0.00 | 0.94 | 95 | 1010.3 |
| 20260506181246 | 41 | 98 | 0.0 | 0.0 | 0.00 | 0.00 | 0.94 | 92 | 1011.1 |
| 20260506180745 | 42 | 103 | 0.0 | 0.0 | 0.00 | 0.00 | 0.93 | 91 | 1011.1 |
| 20260506180241 | 42 | 122 | 0.0 | 0.0 | 0.00 | 0.00 | 0.93 | 92 | 1011.1 |
| 20260506175741 | 42 | 66 | 0.0 | 0.0 | 0.00 | 0.00 | 0.93 | 91 | 1011.0 |
| 20260506175240 | 41 | 175 | 0.0 | 0.0 | 0.00 | 0.00 | 0.92 | 93 | 1011.0 |
| 20260506174736 | 42 | 195 | 0.0 | 0.0 | 0.00 | 0.00 | 0.91 | 92 | 1011.0 |
| 20260506174232 | 43 | 235 | 0.0 | 0.0 | 0.00 | 0.00 | 0.90 | 89 | 1011.1 |
| 20260506173732 | 42 | 25 | 0.0 | 0.0 | 0.00 | 0.00 | 0.89 | 91 | 1011.1 |
| 20260506173231 | 42 | 113 | 0.0 | 0.0 | 0.00 | 0.00 | 0.87 | 92 | 1011.1 |
| 20260506172750 | 42 | 114 | 0.0 | 0.0 | 0.00 | 0.00 | 0.86 | 91 | 1010.9 |
| 20260506172246 | 43 | 18 | 0.0 | 0.0 | 0.00 | 0.00 | 0.83 | 90 | 1010.9 |
| 20260506171742 | 43 | 18 | 0.0 | 0.0 | 0.00 | 0.00 | 0.83 | 88 | 1010.9 |
| 20260506171239 | 42 | 57 | 0.0 | 0.0 | 0.00 | 0.00 | 0.80 | 92 | 1010.8 |
| 20260506170739 | 41 | 360 | 0.0 | 0.0 | 0.00 | 0.00 | 0.79 | 94 | 1010.8 |
| 20260506170238 | 41 | 327 | 0.0 | 0.0 | 0.00 | 0.00 | 0.78 | 94 | 1010.8 |
| 20260506165738 | 41 | 302 | 0.0 | 0.0 | 0.00 | 0.00 | 0.78 | 93 | 1010.2 |
| 20260506165237 | 41 | 244 | 0.0 | 0.0 | 0.00 | 0.00 | 0.77 | 94 | 1010.2 |
| 20260506164737 | 41 | 227 | 0.0 | 0.0 | 0.00 | 0.00 | 0.76 | 94 | 1010.2 |
| 20260506164233 | 42 | 243 | 0.0 | 0.0 | 0.00 | 0.00 | 0.75 | 93 | 1009.5 |
| 20260506163749 | 43 | 259 | 0.0 | 0.0 | 0.00 | 0.00 | 0.73 | 93 | 1009.5 |
| 20260506163248 | 45 | 246 | 0.0 | 0.0 | 0.00 | 0.00 | 0.71 | 93 | 1009.5 |
| 20260506162745 | 46 | 255 | 0.0 | 0.0 | 0.00 | 0.00 | 0.69 | 92 | 1009.3 |
| 20260506162245 | 45 | 89 | 0.0 | 0.0 | 0.00 | 0.00 | 0.67 | 97 | 1009.3 |
| 20260506161744 | 45 | 228 | 0.0 | 0.0 | 0.00 | 0.00 | 0.65 | 97 | 1009.3 |
| 20260506161240 | 45 | 25 | 0.0 | 0.0 | 0.00 | 0.00 | 0.65 | 97 | 1009.2 |
| 20260506160747 | 45 | 52 | 0.0 | 0.0 | 0.00 | 0.00 | 0.64 | 97 | 1009.2 |
| 20260506160243 | 45 | 108 | 0.0 | 0.0 | 0.00 | 0.00 | 0.64 | 97 | 1009.2 |
| 20260506155739 | 45 | 98 | 0.0 | 0.0 | 0.00 | 0.00 | 0.64 | 97 | 1009.3 |
| 20260506155235 | 45 | 138 | 0.0 | 0.0 | 0.00 | 0.00 | 0.64 | 97 | 1009.3 |
| 20260506154734 | 45 | 90 | 0.0 | 0.0 | 0.00 | 0.00 | 0.64 | 97 | 1009.3 |
| 20260506154230 | 45 | 124 | 0.0 | 0.0 | 0.00 | 0.00 | 0.64 | 97 | 1009.4 |
| 20260506153748 | 45 | 92 | 0.0 | 0.0 | 0.00 | 0.00 | 0.64 | 97 | 1009.4 |
| 20260506153244 | 45 | 79 | 0.0 | 0.0 | 0.00 | 0.00 | 0.64 | 97 | 1009.4 |
| 20260506152744 | 45 | 78 | 0.0 | 0.0 | 0.00 | 0.00 | 0.64 | 97 | 1009.4 |
| 20260506152241 | 45 | 64 | 0.0 | 0.0 | 0.00 | 0.00 | 0.64 | 97 | 1009.4 |
| 20260506151740 | 45 | 110 | 0.0 | 0.0 | 0.00 | 0.00 | 0.63 | 97 | 1009.4 |
| 20260506151237 | 45 | 82 | 0.0 | 0.0 | 0.00 | 0.00 | 0.63 | 97 | 1009.6 |
| 20260506150737 | 45 | 92 | 0.0 | 0.0 | 0.00 | 0.00 | 0.61 | 97 | 1009.6 |
| 20260506150236 | 45 | 99 | 0.0 | 0.0 | 0.00 | 0.00 | 0.61 | 97 | 1009.6 |
| 20260506145753 | 45 | 97 | 0.0 | 0.0 | 0.00 | 0.00 | 0.61 | 97 | 1009.7 |
| 20260506145248 | 46 | 96 | 0.0 | 0.0 | 0.00 | 0.00 | 0.61 | 96 | 1009.7 |
| 20260506144745 | 46 | 86 | 0.0 | 0.0 | 0.00 | 0.00 | 0.61 | 96 | 1009.7 |
| 20260506144244 | 46 | 105 | 0.0 | 0.0 | 0.00 | 0.00 | 0.61 | 96 | 1009.8 |
| 20260506143740 | 46 | 96 | 0.0 | 0.0 | 0.00 | 0.00 | 0.61 | 96 | 1009.8 |
| 20260506143236 | 46 | 93 | 0.0 | 0.0 | 0.00 | 0.00 | 0.61 | 96 | 1009.8 |
| 20260506142731 | 46 | 117 | 0.0 | 0.0 | 0.00 | 0.00 | 0.61 | 96 | 1009.9 |
| 20260506142248 | 46 | 96 | 0.0 | 0.0 | 0.00 | 0.00 | 0.61 | 94 | 1009.9 |
| 20260506141744 | 46 | 109 | 0.0 | 0.0 | 0.00 | 0.00 | 0.61 | 93 | 1009.9 |
| 20260506141244 | 47 | 101 | 0.0 | 0.0 | 0.00 | 0.00 | 0.61 | 92 | 1010.4 |
| 20260506140740 | 46 | 91 | 0.0 | 0.0 | 0.00 | 0.00 | 0.61 | 92 | 1010.4 |
| 20260506140236 | 46 | 102 | 0.0 | 0.0 | 0.00 | 0.00 | 0.61 | 92 | 1010.4 |
| 20260506135735 | 46 | 110 | 0.0 | 0.0 | 0.00 | 0.00 | 0.60 | 93 | 1010.4 |
| 20260506135234 | 46 | 115 | 0.0 | 0.0 | 0.00 | 0.00 | 0.60 | 93 | 1010.4 |
| 20260506134731 | 46 | 98 | 0.0 | 0.0 | 0.00 | 0.00 | 0.60 | 92 | 1010.4 |
| 20260506134250 | 46 | 86 | 0.0 | 0.0 | 0.00 | 0.00 | 0.60 | 93 | 1010.7 |
| 20260506133746 | 46 | 105 | 0.0 | 0.0 | 0.00 | 0.00 | 0.60 | 92 | 1010.7 |
| 20260506133242 | 46 | 89 | 0.0 | 0.0 | 0.00 | 0.00 | 0.60 | 92 | 1010.7 |
| 20260506132740 | 46 | 98 | 0.0 | 0.0 | 0.00 | 0.00 | 0.60 | 92 | 1010.7 |
| 20260506132239 | 46 | 96 | 0.0 | 0.0 | 0.00 | 0.00 | 0.60 | 93 | 1010.7 |
| 20260506131735 | 46 | 82 | 0.0 | 0.0 | 0.00 | 0.00 | 0.60 | 96 | 1010.7 |
| 20260506131251 | 44 | 83 | 0.0 | 0.0 | 0.00 | 0.00 | 0.60 | 97 | 1010.9 |
| 20260506130746 | 44 | 91 | 0.0 | 0.0 | 0.00 | 0.00 | 0.60 | 97 | 1010.9 |
| 20260506130245 | 43 | 148 | 0.0 | 0.0 | 0.00 | 0.00 | 0.60 | 97 | 1010.9 |
| 20260506125748 | 43 | 97 | 0.0 | 0.0 | 0.00 | 0.00 | 0.60 | 97 | 1010.6 |
| 20260506125244 | 44 | 124 | 0.0 | 0.0 | 0.00 | 0.00 | 0.58 | 97 | 1010.6 |
| 20260506124744 | 44 | 44 | 0.0 | 0.0 | 0.00 | 0.00 | 0.57 | 97 | 1010.6 |
| 20260506124241 | 44 | 99 | 0.0 | 0.0 | 0.00 | 0.00 | 0.57 | 97 | 1010.6 |
| 20260506123738 | 44 | 89 | 0.0 | 0.0 | 0.00 | 0.00 | 0.57 | 97 | 1010.6 |
| 20260506123234 | 44 | 139 | 0.0 | 0.0 | 0.00 | 0.00 | 0.57 | 96 | 1010.6 |
| 20260506122734 | 44 | 202 | 0.0 | 0.0 | 0.00 | 0.00 | 0.57 | 96 | 1010.4 |
| 20260506122250 | 44 | 77 | 0.0 | 0.0 | 0.00 | 0.00 | 0.57 | 95 | 1010.4 |
| 20260506121746 | 44 | 152 | 0.0 | 0.0 | 0.00 | 0.00 | 0.57 | 95 | 1010.4 |
| 20260506121243 | 44 | 122 | 0.0 | 0.0 | 0.00 | 0.00 | 0.57 | 95 | 1010.5 |
| 20260506120739 | 44 | 101 | 0.0 | 0.0 | 0.00 | 0.00 | 0.57 | 96 | 1010.5 |
| 20260506120239 | 44 | 78 | 0.0 | 0.0 | 0.00 | 0.00 | 0.57 | 97 | 1010.5 |
| 20260506115734 | 43 | 83 | 0.0 | 0.0 | 0.00 | 0.00 | 0.57 | 96 | 1010.5 |
| 20260506115234 | 43 | 75 | 0.0 | 0.0 | 0.00 | 0.00 | 0.57 | 96 | 1010.5 |
| 20260506114734 | 44 | 68 | 0.0 | 0.0 | 0.00 | 0.00 | 0.57 | 96 | 1010.5 |
| 20260506114250 | 44 | 96 | 0.0 | 0.0 | 0.00 | 0.00 | 0.57 | 95 | 1010.4 |
| 20260506113745 | 45 | 98 | 0.0 | 0.0 | 0.00 | 0.00 | 0.57 | 93 | 1010.4 |
| 20260506113243 | 45 | 114 | 0.0 | 0.0 | 0.00 | 0.00 | 0.57 | 93 | 1010.4 |
| 20260506112743 | 45 | 93 | 0.0 | 0.0 | 0.00 | 0.00 | 0.57 | 93 | 1010.6 |
| 20260506112239 | 46 | 91 | 0.0 | 0.0 | 0.00 | 0.00 | 0.57 | 88 | 1010.6 |
| 20260506111739 | 46 | 30 | 0.0 | 0.0 | 0.00 | 0.00 | 0.57 | 91 | 1010.6 |
| 20260506111236 | 45 | 80 | 0.0 | 0.0 | 0.00 | 0.00 | 0.57 | 92 | 1010.9 |
| 20260506110753 | 45 | 72 | 0.0 | 0.0 | 0.00 | 0.00 | 0.57 | 92 | 1010.9 |
| 20260506110248 | 45 | 89 | 0.0 | 0.0 | 0.00 | 0.00 | 0.57 | 91 | 1010.9 |
| 20260506105744 | 45 | 86 | 0.0 | 0.0 | 0.00 | 0.00 | 0.57 | 89 | 1011.0 |
| 20260506105244 | 45 | 103 | 0.0 | 0.0 | 0.00 | 0.00 | 0.57 | 89 | 1011.0 |
| 20260506104740 | 45 | 121 | 0.0 | 0.0 | 0.00 | 0.00 | 0.57 | 91 | 1011.0 |
| 20260506104235 | 45 | 91 | 0.0 | 0.0 | 0.00 | 0.00 | 0.57 | 91 | 1011.0 |
| 20260506103734 | 44 | 103 | 0.0 | 0.0 | 0.00 | 0.00 | 0.57 | 91 | 1011.0 |
| 20260506103235 | 44 | 76 | 0.0 | 0.0 | 0.00 | 0.00 | 0.57 | 92 | 1011.0 |
| 20260506102736 | 44 | 77 | 0.0 | 0.0 | 0.00 | 0.00 | 0.57 | 96 | 1011.1 |
| 20260506102236 | 44 | 102 | 0.0 | 0.0 | 0.00 | 0.00 | 0.57 | 97 | 1011.1 |
| 20260506101732 | 43 | 72 | 0.0 | 0.0 | 0.00 | 0.00 | 0.57 | 98 | 1011.1 |
| 20260506101253 | 43 | 76 | 0.0 | 0.0 | 0.00 | 0.00 | 0.57 | 98 | 1011.4 |
| 20260506100747 | 43 | 33 | 0.0 | 0.0 | 0.00 | 0.00 | 0.57 | 98 | 1011.4 |
| 20260506100244 | 42 | 61 | 0.0 | 0.0 | 0.00 | 0.00 | 0.57 | 98 | 1011.4 |
| 20260506095240 | 42 | 80 | 0.0 | 0.0 | 0.00 | 0.00 | 0.57 | 98 | 1011.2 |
| 20260506094740 | 41 | 56 | 0.0 | 0.0 | 0.00 | 0.00 | 0.57 | 98 | 1011.2 |
| 20260506094240 | 41 | 181 | 0.0 | 0.0 | 0.00 | 0.00 | 0.57 | 98 | 1011.1 |
| 20260506093736 | 41 | 359 | 0.0 | 0.0 | 0.00 | 0.00 | 0.56 | 98 | 1011.1 |
| 20260506093252 | 41 | 204 | 0.0 | 0.0 | 0.00 | 0.00 | 0.54 | 98 | 1011.1 |
| 20260506092747 | 41 | 70 | 0.0 | 0.0 | 0.00 | 0.00 | 0.52 | 98 | 1010.7 |
| 20260506092243 | 41 | 74 | 0.0 | 0.0 | 0.00 | 0.00 | 0.51 | 98 | 1010.7 |
| 20260506091747 | 41 | 98 | 0.0 | 0.0 | 0.00 | 0.00 | 0.50 | 98 | 1010.7 |
| 20260506091247 | 41 | 110 | 0.0 | 0.0 | 0.00 | 0.00 | 0.47 | 98 | 1010.6 |
| 20260506090742 | 41 | 191 | 0.0 | 0.0 | 0.00 | 0.00 | 0.45 | 98 | 1010.6 |
| 20260506090239 | 41 | 126 | 0.0 | 0.0 | 0.00 | 0.00 | 0.44 | 98 | 1010.6 |
| 20260506085734 | 41 | 70 | 0.0 | 0.0 | 0.00 | 0.00 | 0.43 | 98 | 1010.5 |
| 20260506085233 | 41 | 123 | 0.0 | 0.0 | 0.00 | 0.00 | 0.42 | 98 | 1010.5 |
| 20260506084730 | 42 | 123 | 0.0 | 0.0 | 0.00 | 0.00 | 0.39 | 98 | 1010.5 |
| 20260506084251 | 42 | 167 | 0.0 | 0.0 | 0.00 | 0.00 | 0.39 | 98 | 1010.5 |
| 20260506083747 | 42 | 182 | 0.0 | 0.0 | 0.00 | 0.00 | 0.39 | 98 | 1010.5 |
| 20260506083244 | 42 | 148 | 0.0 | 0.0 | 0.00 | 0.00 | 0.39 | 98 | 1010.5 |
| 20260506082740 | 42 | 132 | 0.0 | 0.0 | 0.00 | 0.00 | 0.39 | 98 | 1010.5 |
| 20260506082239 | 42 | 140 | 0.0 | 0.0 | 0.00 | 0.00 | 0.39 | 98 | 1010.5 |
| 20260506081736 | 43 | 79 | 0.0 | 0.0 | 0.00 | 0.00 | 0.39 | 98 | 1010.5 |
| 20260506081236 | 43 | 122 | 0.0 | 0.0 | 0.00 | 0.00 | 0.39 | 98 | 1010.5 |
| 20260506080741 | 43 | 127 | 0.0 | 0.0 | 0.00 | 0.00 | 0.39 | 98 | 1010.5 |
| 20260506080242 | 42 | 126 | 0.0 | 0.0 | 0.00 | 0.00 | 0.39 | 98 | 1010.5 |
| 20260506073249 | 42 | 90 | 0.0 | 0.0 | 0.00 | 0.00 | 0.39 | 98 | 1010.6 |
| 20260506072745 | 42 | 165 | 0.0 | 0.0 | 0.00 | 0.00 | 0.39 | 98 | 1010.6 |
| 20260506072244 | 42 | 104 | 0.0 | 0.0 | 0.00 | 0.00 | 0.39 | 98 | 1010.6 |
| 20260506071740 | 42 | 136 | 0.0 | 0.0 | 0.00 | 0.00 | 0.39 | 98 | 1010.6 |
| 20260506071236 | 42 | 104 | 0.0 | 0.0 | 0.00 | 0.00 | 0.39 | 98 | 1010.6 |
| 20260506070732 | 42 | 119 | 0.0 | 0.0 | 0.00 | 0.00 | 0.39 | 98 | 1010.6 |
| 20260506070251 | 42 | 88 | 0.0 | 0.0 | 0.00 | 0.00 | 0.39 | 98 | 1010.6 |
| 20260506062237 | 42 | 96 | 0.0 | 0.0 | 0.00 | 0.00 | 0.38 | 98 | 1011.0 |
| 20260506061733 | 42 | 153 | 0.0 | 0.0 | 0.00 | 0.00 | 0.38 | 98 | 1011.0 |
| 20260506061249 | 42 | 124 | 0.0 | 0.0 | 0.00 | 0.00 | 0.38 | 98 | 1011.0 |
| 20260506060745 | 42 | 124 | 0.0 | 0.0 | 0.00 | 0.00 | 0.38 | 98 | 1011.0 |
| 20260506060244 | 42 | 53 | 0.0 | 0.0 | 0.00 | 0.00 | 0.38 | 98 | 1011.0 |
| 20260506051241 | 43 | 62 | 0.0 | 0.0 | 0.00 | 0.00 | 0.28 | 98 | 1011.1 |
| 20260506050737 | 43 | 67 | 0.0 | 0.0 | 0.00 | 0.00 | 0.27 | 98 | 1011.1 |
| 20260506050236 | 43 | 85 | 0.0 | 0.0 | 0.00 | 0.00 | 0.25 | 98 | 1011.1 |
| 20260506044734 | 43 | 84 | 0.0 | 0.0 | 0.00 | 0.00 | 0.24 | 98 | 1011.5 |
| 20260506044233 | 43 | 106 | 0.0 | 0.0 | 0.00 | 0.00 | 0.24 | 98 | 1011.4 |
| 20260506043730 | 43 | 70 | 0.0 | 0.0 | 0.00 | 0.00 | 0.23 | 98 | 1011.4 |
| 20260506043248 | 43 | 91 | 0.0 | 0.0 | 0.00 | 0.00 | 0.23 | 98 | 1011.4 |
| 20260506042748 | 43 | 89 | 0.0 | 0.0 | 0.00 | 0.00 | 0.23 | 98 | 1011.2 |
| 20260506042244 | 43 | 72 | 0.0 | 0.0 | 0.00 | 0.00 | 0.23 | 98 | 1011.2 |
| 20260506041741 | 43 | 75 | 0.0 | 0.0 | 0.00 | 0.00 | 0.22 | 98 | 1011.2 |
| 20260506041242 | 43 | 117 | 0.0 | 0.0 | 0.00 | 0.00 | 0.22 | 98 | 1011.2 |
| 20260506040742 | 43 | 94 | 0.0 | 0.0 | 0.00 | 0.00 | 0.22 | 98 | 1011.2 |
| 20260506040241 | 43 | 77 | 0.0 | 0.0 | 0.00 | 0.00 | 0.22 | 98 | 1011.2 |
| 20260506035738 | 43 | 88 | 0.0 | 0.0 | 0.00 | 0.00 | 0.22 | 98 | 1011.4 |
| 20260506035237 | 43 | 102 | 0.0 | 0.0 | 0.00 | 0.00 | 0.22 | 98 | 1011.4 |
| 20260506034733 | 43 | 108 | 0.0 | 0.0 | 0.00 | 0.00 | 0.22 | 98 | 1011.4 |
| 20260506034249 | 43 | 107 | 0.0 | 0.0 | 0.00 | 0.00 | 0.22 | 98 | 1011.4 |
| 20260506033744 | 43 | 97 | 0.0 | 0.0 | 0.00 | 0.00 | 0.22 | 98 | 1011.4 |
| 20260506033240 | 43 | 98 | 0.0 | 0.0 | 0.00 | 0.00 | 0.22 | 98 | 1011.4 |
| 20260506032736 | 43 | 112 | 0.0 | 0.0 | 0.00 | 0.00 | 0.22 | 98 | 1011.5 |
| 20260506032252 | 43 | 99 | 0.0 | 0.0 | 0.00 | 0.00 | 0.22 | 98 | 1011.5 |
| 20260506031733 | 43 | 85 | 0.0 | 0.0 | 0.00 | 0.00 | 0.22 | 98 | 1011.5 |
| 20260506031252 | 43 | 96 | 0.0 | 0.0 | 0.00 | 0.00 | 0.22 | 98 | 1011.6 |
| 20260506030748 | 43 | 74 | 0.0 | 0.0 | 0.00 | 0.00 | 0.22 | 98 | 1011.6 |
| 20260506030244 | 43 | 76 | 0.0 | 0.0 | 0.00 | 0.00 | 0.22 | 98 | 1011.6 |
| 20260506025740 | 43 | 106 | 0.0 | 0.0 | 0.00 | 0.00 | 0.22 | 98 | 1012.0 |
| 20260506025239 | 43 | 93 | 0.0 | 0.0 | 0.00 | 0.00 | 0.22 | 98 | 1012.0 |
| 20260506024736 | 44 | 89 | 0.0 | 0.0 | 0.00 | 0.00 | 0.22 | 98 | 1012.0 |
| 20260506024236 | 44 | 103 | 0.0 | 0.0 | 0.00 | 0.00 | 0.21 | 98 | 1012.1 |
| 20260506023735 | 43 | 106 | 0.0 | 0.0 | 0.00 | 0.00 | 0.21 | 98 | 1012.1 |
| 20260506023232 | 43 | 84 | 0.0 | 0.0 | 0.00 | 0.00 | 0.21 | 98 | 1012.1 |
| 20260506022751 | 43 | 83 | 0.0 | 0.0 | 0.00 | 0.00 | 0.21 | 98 | 1012.1 |
| 20260506022247 | 44 | 88 | 0.0 | 0.0 | 0.00 | 0.00 | 0.21 | 98 | 1012.1 |
| 20260506021745 | 44 | 104 | 0.0 | 0.0 | 0.00 | 0.00 | 0.21 | 98 | 1012.1 |
| 20260506021245 | 43 | 77 | 0.0 | 0.0 | 0.00 | 0.00 | 0.21 | 98 | 1012.2 |
| 20260506020744 | 44 | 91 | 0.0 | 0.0 | 0.00 | 0.00 | 0.21 | 98 | 1012.2 |
| 20260506020245 | 43 | 92 | 0.0 | 0.0 | 0.00 | 0.00 | 0.21 | 98 | 1012.2 |
| 20260506015743 | 43 | 98 | 0.0 | 0.0 | 0.00 | 0.00 | 0.21 | 98 | 1012.3 |
| 20260506015240 | 43 | 88 | 0.0 | 0.0 | 0.00 | 0.00 | 0.21 | 98 | 1012.3 |
| 20260506014739 | 43 | 84 | 0.0 | 0.0 | 0.00 | 0.00 | 0.21 | 98 | 1012.3 |
| 20260506014236 | 43 | 83 | 0.0 | 0.0 | 0.00 | 0.00 | 0.21 | 98 | 1012.2 |
| 20260506013733 | 43 | 102 | 0.0 | 0.0 | 0.00 | 0.00 | 0.21 | 98 | 1012.2 |
| 20260506013251 | 43 | 86 | 0.0 | 0.0 | 0.00 | 0.00 | 0.21 | 98 | 1012.2 |
| 20260506012748 | 43 | 94 | 0.0 | 0.0 | 0.00 | 0.00 | 0.21 | 98 | 1012.2 |
| 20260506012247 | 43 | 99 | 0.0 | 0.0 | 0.00 | 0.00 | 0.21 | 98 | 1012.2 |
| 20260506011743 | 43 | 103 | 0.0 | 0.0 | 0.00 | 0.00 | 0.21 | 98 | 1012.2 |
| 20260506011239 | 43 | 83 | 0.0 | 0.0 | 0.00 | 0.00 | 0.21 | 98 | 1012.5 |
| 20260506010736 | 43 | 94 | 0.0 | 0.0 | 0.00 | 0.00 | 0.21 | 98 | 1012.5 |
| 20260506010237 | 43 | 80 | 0.0 | 0.0 | 0.00 | 0.00 | 0.20 | 98 | 1012.5 |
| 20260506005736 | 43 | 96 | 0.0 | 0.0 | 0.00 | 0.00 | 0.20 | 98 | 1012.6 |
| 20260506005236 | 43 | 91 | 0.0 | 0.0 | 0.00 | 0.00 | 0.19 | 98 | 1012.6 |
| 20260506004752 | 43 | 93 | 0.0 | 0.0 | 0.00 | 0.00 | 0.19 | 98 | 1012.6 |
| 20260506004247 | 43 | 85 | 0.0 | 0.0 | 0.00 | 0.00 | 0.17 | 98 | 1012.7 |
| 20260505233234 | 44 | 104 | 0.0 | 0.0 | 0.00 | 0.00 | 0.09 | 98 | 1013.2 |
| 20260505232734 | 44 | 96 | 0.0 | 0.0 | 0.00 | 0.00 | 0.09 | 98 | 1013.1 |
| 20260505232250 | 44 | 123 | 0.0 | 0.0 | 0.00 | 0.00 | 0.09 | 98 | 1013.1 |
| 20260505231746 | 44 | 138 | 0.0 | 0.0 | 0.00 | 0.00 | 0.09 | 98 | 1013.1 |
| 20260505231242 | 44 | 108 | 0.0 | 0.0 | 0.00 | 0.00 | 0.09 | 98 | 1013.2 |
| 20260505230741 | 44 | 108 | 0.0 | 0.0 | 0.00 | 0.00 | 0.09 | 98 | 1013.2 |